Tracking 28790 objects as of 18-Apr-2024
HD Live streaming from Space Station
objects crossing your sky now

FENGYUN 1C DEB

Track FENGYUN 1C DEB now!
10-day predictions


NORAD ID: 30265
Int'l Code: 1999-025YA
Perigee: 740.4 km
Apogee: 798.0 km
Inclination: 98.7 °
Period: 100.1 minutes
Semi major axis: 7140 km
RCS: 0.0262 m2 (small)
Launch date: May 10, 1999
Source: People's Republic of China (PRC)
Launch site: Taiyaun Space Center, China (TSC)

Note: This is SATELLITE DEBRIS
Your satellite tracking list
Your tracking list is empty




NASA's NSSDC Master Catalog

Two Line Element Set (TLE):
1 30265U 99025YA  24109.21897519  .00016765  00000-0  53920-2 0  9995
2 30265  98.6639 196.1732 0040317  44.4407  11.2467 14.38911573896710
Source of the keplerian elements: AFSPC